Time,TemperatureF,DewpointF,PressureIn,WindDirection,WindDirectionDegrees,WindSpeedMPH,WindSpeedGustMPH,Humidity,HourlyPrecipIn,Conditions,Clouds,dailyrainin,SolarRadiationWatts/m^2,SoftwareType,DateUTC
2013-01-11 00:03:00,62.1,60.0,30.20,ESE,109,0.0,0.0,91,0.00,,,0.00,0,weatherlink.com 1.10,2013-01-11 05:03:00,
2013-01-11 00:18:00,62.1,60.0,30.20,ESE,109,0.0,0.0,92,0.00,,,0.00,0,weatherlink.com 1.10,2013-01-11 05:18:00,
2013-01-11 00:34:00,62.1,60.0,30.20,ESE,109,0.0,0.0,92,0.00,,,0.00,0,weatherlink.com 1.10,2013-01-11 05:34:00,
2013-01-11 00:48:00,61.8,60.0,30.19,ESE,109,0.0,0.0,92,0.00,,,0.00,0,weatherlink.com 1.10,2013-01-11 05:48:00,
2013-01-11 01:04:00,61.3,59.0,30.19,ESE,109,0.0,0.0,92,0.00,,,0.00,0,weatherlink.com 1.10,2013-01-11 06:04:00,
2013-01-11 01:18:00,61.0,59.0,30.19,ESE,109,0.0,0.0,92,0.00,,,0.00,0,weatherlink.com 1.10,2013-01-11 06:18:00,
2013-01-11 01:34:00,60.7,58.0,30.19,ESE,109,0.0,0.0,92,0.00,,,0.00,0,weatherlink.com 1.10,2013-01-11 06:34:00,
2013-01-11 01:48:00,60.5,58.0,30.19,ESE,109,0.0,0.0,92,0.00,,,0.00,0,weatherlink.com 1.10,2013-01-11 06:48:00,
2013-01-11 02:03:00,60.2,58.0,30.19,ESE,109,0.0,0.0,92,0.00,,,0.00,0,weatherlink.com 1.10,2013-01-11 07:03:00,
2013-01-11 02:18:00,60.1,58.0,30.19,ESE,109,0.0,0.0,93,0.00,,,0.00,0,weatherlink.com 1.10,2013-01-11 07:18:00,
2013-01-11 02:34:00,59.9,58.0,30.18,ESE,109,0.0,0.0,93,0.00,,,0.00,0,weatherlink.com 1.10,2013-01-11 07:34:00,
2013-01-11 02:50:00,59.6,58.0,30.18,ESE,109,0.0,0.0,93,0.00,,,0.00,0,weatherlink.com 1.10,2013-01-11 07:50:00,
2013-01-11 03:05:00,59.5,58.0,30.18,ESE,109,0.0,0.0,93,0.00,,,0.00,0,weatherlink.com 1.10,2013-01-11 08:05:00,
2013-01-11 03:19:00,59.0,57.0,30.18,ESE,109,0.0,0.0,93,0.00,,,0.00,0,weatherlink.com 1.10,2013-01-11 08:19:00,
2013-01-11 03:35:00,58.7,57.0,30.18,ESE,109,0.0,0.0,93,0.00,,,0.00,0,weatherlink.com 1.10,2013-01-11 08:35:00,
2013-01-11 03:50:00,58.3,56.0,30.17,ESE,109,0.0,0.0,93,0.00,,,0.00,0,weatherlink.com 1.10,2013-01-11 08:50:00,
2013-01-11 04:05:00,58.1,56.0,30.16,ESE,109,0.0,0.0,93,0.00,,,0.00,0,weatherlink.com 1.10,2013-01-11 09:05:00,
2013-01-11 04:20:00,57.8,56.0,30.15,ESE,109,0.0,0.0,93,0.00,,,0.00,0,weatherlink.com 1.10,2013-01-11 09:20:00,
2013-01-11 04:35:00,57.6,56.0,30.15,ESE,109,0.0,0.0,94,0.00,,,0.00,0,weatherlink.com 1.10,2013-01-11 09:35:00,
2013-01-11 04:51:00,57.6,56.0,30.15,ESE,109,0.0,0.0,94,0.00,,,0.00,0,weatherlink.com 1.10,2013-01-11 09:51:00,
2013-01-11 05:05:00,57.6,56.0,30.14,ESE,109,0.0,0.0,94,0.00,,,0.00,0,weatherlink.com 1.10,2013-01-11 10:05:00,
2013-01-11 05:20:00,57.6,56.0,30.14,ESE,109,0.0,0.0,94,0.00,,,0.00,0,weatherlink.com 1.10,2013-01-11 10:20:00,
2013-01-11 05:35:00,58.1,57.0,30.14,ESE,109,0.0,0.0,95,0.00,,,0.00,0,weatherlink.com 1.10,2013-01-11 10:35:00,
2013-01-11 05:50:00,58.7,57.0,30.14,ESE,109,0.0,0.0,95,0.00,,,0.00,0,weatherlink.com 1.10,2013-01-11 10:50:00,
2013-01-11 06:06:00,59.3,58.0,30.15,ESE,109,0.0,0.0,95,0.00,,,0.00,0,weatherlink.com 1.10,2013-01-11 11:06:00,
2013-01-11 06:21:00,59.5,58.0,30.15,ESE,109,0.0,0.0,95,0.00,,,0.00,0,weatherlink.com 1.10,2013-01-11 11:21:00,
2013-01-11 06:51:00,59.3,58.0,30.16,ESE,109,0.0,0.0,95,0.00,,,0.00,0,weatherlink.com 1.10,2013-01-11 11:51:00,
2013-01-11 07:06:00,58.9,58.0,30.16,ESE,109,0.0,0.0,95,0.00,,,0.00,0,weatherlink.com 1.10,2013-01-11 12:06:00,
2013-01-11 07:21:00,58.4,57.0,30.16,ESE,109,0.0,0.0,95,0.00,,,0.00,0,weatherlink.com 1.10,2013-01-11 12:21:00,
2013-01-11 07:36:00,58.1,57.0,30.17,ESE,109,0.0,0.0,95,0.00,,,0.00,12,weatherlink.com 1.10,2013-01-11 12:36:00,
2013-01-11 07:51:00,58.0,57.0,30.17,ESE,109,0.0,0.0,96,0.00,,,0.00,30,weatherlink.com 1.10,2013-01-11 12:51:00,
2013-01-11 08:06:00,58.1,57.0,30.17,ESE,109,0.0,0.0,96,0.00,,,0.00,35,weatherlink.com 1.10,2013-01-11 13:06:00,
2013-01-11 08:21:00,58.9,58.0,30.17,ESE,109,0.0,0.0,96,0.00,,,0.00,44,weatherlink.com 1.10,2013-01-11 13:21:00,
2013-01-11 08:37:00,61.2,61.0,30.16,ESE,109,0.0,0.0,98,0.00,,,0.00,67,weatherlink.com 1.10,2013-01-11 13:37:00,
2013-01-11 08:51:00,62.9,62.0,30.17,ESE,109,0.0,0.0,98,0.00,,,0.00,98,weatherlink.com 1.10,2013-01-11 13:51:00,
2013-01-11 09:06:00,64.7,64.0,30.17,ESE,109,0.0,1.0,98,0.00,,,0.00,46,weatherlink.com 1.10,2013-01-11 14:06:00,
2013-01-11 09:22:00,66.0,65.0,30.18,SSE,165,0.0,2.0,97,0.00,,,0.00,58,weatherlink.com 1.10,2013-01-11 14:22:00,
2013-01-11 09:38:00,66.6,66.0,30.18,SE,145,2.0,3.0,97,0.00,,,0.00,51,weatherlink.com 1.10,2013-01-11 14:38:00,
2013-01-11 09:52:00,67.3,67.0,30.18,SSW,207,0.0,3.0,97,0.00,,,0.00,63,weatherlink.com 1.10,2013-01-11 14:52:00,
2013-01-11 10:07:00,67.8,67.0,30.17,SW,217,0.0,6.0,97,0.00,,,0.00,53,weatherlink.com 1.10,2013-01-11 15:07:00,
2013-01-11 10:23:00,68.4,68.0,30.16,SW,221,2.0,4.0,98,0.00,,,0.00,60,weatherlink.com 1.10,2013-01-11 15:23:00,
2013-01-11 10:37:00,69.1,68.0,30.16,WSW,249,0.0,5.0,97,0.00,,,0.00,107,weatherlink.com 1.10,2013-01-11 15:37:00,
2013-01-11 11:08:00,70.1,69.0,30.16,WSW,241,0.0,8.0,95,0.00,,,0.00,480,weatherlink.com 1.10,2013-01-11 16:08:00,
2013-01-11 11:23:00,71.3,69.0,30.16,SW,229,0.0,7.0,91,0.00,,,0.00,181,weatherlink.com 1.10,2013-01-11 16:23:00,
2013-01-11 11:38:00,72.5,67.0,30.15,WSW,254,1.0,11.0,83,0.00,,,0.00,123,weatherlink.com 1.10,2013-01-11 16:38:00,
2013-01-11 11:53:00,74.2,66.0,30.15,SE,142,0.0,7.0,75,0.00,,,0.00,97,weatherlink.com 1.10,2013-01-11 16:53:00,
2013-01-11 12:08:00,75.4,65.0,30.14,SSW,200,0.0,5.0,70,0.00,,,0.00,123,weatherlink.com 1.10,2013-01-11 17:08:00,
2013-01-11 12:23:00,77.0,65.0,30.13,SSW,212,1.0,6.0,67,0.00,,,0.00,606,weatherlink.com 1.10,2013-01-11 17:23:00,
2013-01-11 12:38:00,78.3,64.0,30.13,South,180,3.0,7.0,62,0.00,,,0.00,617,weatherlink.com 1.10,2013-01-11 17:38:00,
2013-01-11 12:53:00,79.4,63.0,30.12,South,190,0.0,7.0,58,0.00,,,0.00,613,weatherlink.com 1.10,2013-01-11 17:53:00,
2013-01-11 13:08:00,80.1,62.0,30.12,WSW,240,1.0,7.0,54,0.00,,,0.00,606,weatherlink.com 1.10,2013-01-11 18:08:00,
2013-01-11 13:23:00,81.1,61.0,30.11,SW,228,0.0,7.0,50,0.00,,,0.00,601,weatherlink.com 1.10,2013-01-11 18:23:00,
2013-01-11 13:39:00,81.8,61.0,30.10,West,264,1.0,7.0,50,0.00,,,0.00,575,weatherlink.com 1.10,2013-01-11 18:39:00,
2013-01-11 13:54:00,82.4,61.0,30.10,SW,229,0.0,5.0,48,0.00,,,0.00,552,weatherlink.com 1.10,2013-01-11 18:54:00,
2013-01-11 14:09:00,82.4,60.0,30.10,SSW,213,1.0,6.0,46,0.00,,,0.00,501,weatherlink.com 1.10,2013-01-11 19:09:00,
2013-01-11 14:24:00,82.2,60.0,30.10,SSE,153,0.0,4.0,47,0.00,,,0.00,534,weatherlink.com 1.10,2013-01-11 19:24:00,
2013-01-11 14:39:00,82.8,60.0,30.09,South,189,0.0,5.0,46,0.00,,,0.00,475,weatherlink.com 1.10,2013-01-11 19:39:00,
2013-01-11 14:54:00,83.0,60.0,30.09,South,183,1.0,6.0,46,0.00,,,0.00,459,weatherlink.com 1.10,2013-01-11 19:54:00,
2013-01-11 15:09:00,83.0,60.0,30.10,SSW,198,0.0,5.0,46,0.00,,,0.00,397,weatherlink.com 1.10,2013-01-11 20:09:00,
2013-01-11 15:24:00,82.6,61.0,30.09,SSW,200,0.0,6.0,48,0.00,,,0.00,392,weatherlink.com 1.10,2013-01-11 20:24:00,
2013-01-11 15:39:00,82.8,61.0,30.10,West,281,0.0,4.0,48,0.00,,,0.00,336,weatherlink.com 1.10,2013-01-11 20:39:00,
2013-01-11 15:54:00,82.6,61.0,30.09,SW,235,0.0,3.0,48,0.00,,,0.00,290,weatherlink.com 1.10,2013-01-11 20:54:00,
2013-01-11 16:09:00,82.4,61.0,30.09,SW,229,0.0,2.0,49,0.00,,,0.00,236,weatherlink.com 1.10,2013-01-11 21:09:00,
2013-01-11 16:24:00,81.6,61.0,30.09,South,180,0.0,4.0,50,0.00,,,0.00,77,weatherlink.com 1.10,2013-01-11 21:24:00,
2013-01-11 16:39:00,80.9,61.0,30.09,South,188,0.0,3.0,51,0.00,,,0.00,90,weatherlink.com 1.10,2013-01-11 21:39:00,
2013-01-11 16:54:00,80.3,62.0,30.09,South,189,0.0,1.0,53,0.00,,,0.00,69,weatherlink.com 1.10,2013-01-11 21:54:00,
2013-01-11 17:09:00,79.8,62.0,30.09,South,189,0.0,1.0,54,0.00,,,0.00,72,weatherlink.com 1.10,2013-01-11 22:09:00,
2013-01-11 17:24:00,78.8,64.0,30.09,ESE,111,0.0,5.0,61,0.00,,,0.00,37,weatherlink.com 1.10,2013-01-11 22:24:00,
2013-01-11 17:39:00,77.2,65.0,30.09,ESE,111,1.0,3.0,65,0.00,,,0.00,11,weatherlink.com 1.10,2013-01-11 22:39:00,
2013-01-11 17:55:00,75.6,66.0,30.09,ESE,113,0.0,3.0,71,0.00,,,0.00,0,weatherlink.com 1.10,2013-01-11 22:55:00,
2013-01-11 18:09:00,74.2,65.0,30.09,ESE,102,0.0,3.0,74,0.00,,,0.00,0,weatherlink.com 1.10,2013-01-11 23:09:00,
2013-01-11 18:25:00,73.2,66.0,30.09,ESE,104,0.0,1.0,77,0.00,,,0.00,0,weatherlink.com 1.10,2013-01-11 23:25:00,
2013-01-11 18:40:00,72.5,65.0,30.09,ESE,104,0.0,1.0,78,0.00,,,0.00,0,weatherlink.com 1.10,2013-01-11 23:40:00,
2013-01-11 18:54:00,72.0,65.0,30.10,ESE,104,0.0,1.0,79,0.00,,,0.00,0,weatherlink.com 1.10,2013-01-11 23:54:00,
2013-01-11 19:10:00,71.3,65.0,30.10,ESE,103,0.0,3.0,80,0.00,,,0.00,0,weatherlink.com 1.10,2013-01-12 00:10:00,
2013-01-11 19:25:00,70.9,65.0,30.10,ESE,102,0.0,3.0,81,0.00,,,0.00,0,weatherlink.com 1.10,2013-01-12 00:25:00,
2013-01-11 19:40:00,70.6,65.0,30.10,ESE,103,0.0,2.0,82,0.00,,,0.00,0,weatherlink.com 1.10,2013-01-12 00:40:00,
2013-01-11 19:55:00,70.3,65.0,30.10,ESE,103,0.0,1.0,83,0.00,,,0.00,0,weatherlink.com 1.10,2013-01-12 00:55:00,
2013-01-11 20:10:00,70.1,65.0,30.10,ESE,104,0.0,1.0,83,0.00,,,0.00,0,weatherlink.com 1.10,2013-01-12 01:10:00,
2013-01-11 20:25:00,69.8,65.0,30.10,ESE,107,0.0,1.0,84,0.00,,,0.00,0,weatherlink.com 1.10,2013-01-12 01:25:00,
2013-01-11 20:40:00,69.6,65.0,30.10,ESE,107,0.0,1.0,84,0.00,,,0.00,0,weatherlink.com 1.10,2013-01-12 01:40:00,
2013-01-11 20:55:00,69.3,64.0,30.10,ESE,107,0.0,2.0,84,0.00,,,0.00,0,weatherlink.com 1.10,2013-01-12 01:55:00,
2013-01-11 21:10:00,69.1,64.0,30.10,ESE,107,0.0,1.0,84,0.00,,,0.00,0,weatherlink.com 1.10,2013-01-12 02:10:00,
2013-01-11 21:25:00,68.9,64.0,30.11,ESE,107,0.0,1.0,84,0.00,,,0.00,0,weatherlink.com 1.10,2013-01-12 02:25:00,
2013-01-11 21:40:00,68.6,64.0,30.11,ESE,107,0.0,1.0,85,0.00,,,0.00,0,weatherlink.com 1.10,2013-01-12 02:40:00,
2013-01-11 21:55:00,68.3,64.0,30.12,ESE,107,0.0,1.0,85,0.00,,,0.00,0,weatherlink.com 1.10,2013-01-12 02:55:00,
2013-01-11 22:10:00,67.9,63.0,30.12,ESE,107,0.0,0.0,85,0.00,,,0.00,0,weatherlink.com 1.10,2013-01-12 03:10:00,
2013-01-11 22:25:00,67.8,64.0,30.12,ESE,107,0.0,0.0,86,0.00,,,0.00,0,weatherlink.com 1.10,2013-01-12 03:25:00,
2013-01-11 22:40:00,67.3,63.0,30.12,ESE,107,0.0,0.0,86,0.00,,,0.00,0,weatherlink.com 1.10,2013-01-12 03:40:00,
2013-01-11 22:55:00,66.9,63.0,30.12,ESE,107,0.0,0.0,86,0.00,,,0.00,0,weatherlink.com 1.10,2013-01-12 03:55:00,
2013-01-11 23:10:00,66.6,63.0,30.12,ESE,107,0.0,0.0,87,0.00,,,0.00,0,weatherlink.com 1.10,2013-01-12 04:10:00,
2013-01-11 23:25:00,66.3,63.0,30.12,ESE,107,0.0,0.0,88,0.00,,,0.00,0,weatherlink.com 1.10,2013-01-12 04:25:00,
2013-01-11 23:41:00,66.1,63.0,30.12,ESE,107,0.0,0.0,88,0.00,,,0.00,0,weatherlink.com 1.10,2013-01-12 04:41:00,
2013-01-11 23:55:00,65.8,62.0,30.12,ESE,107,0.0,0.0,88,0.00,,,0.00,0,weatherlink.com 1.10,2013-01-12 04:55:00,